WB6TTB Weather Reports


time (UTC)temp
F
wind
direction
speed
knots
gust
knots
rain 1hr
in
rain 24hr
in
rain mn
in
humidity
%
barometer
mb
20260506193604 66 0 0.0 0.0 0.00 0.00 0.00 77 1019.5
20260506193004 65 0 0.0 0.0 0.00 0.00 0.00 77 1019.6
20260506171804 59 0 0.0 0.0 0.00 0.00 0.00 86 1020.1
20260506170604 58 0 0.0 0.0 0.00 0.00 0.00 87 1020.1
20260506163603 56 0 0.0 0.0 0.00 0.00 0.00 89 1020.0
20260506161803 57 0 0.0 0.0 0.00 0.00 0.00 88 1020.0
20260506161203 57 0 0.0 0.0 0.00 0.00 0.00 88 1020.0
20260506154203 57 0 0.0 0.0 0.00 0.00 0.00 89 1020.0
20260506152403 56 0 0.0 0.0 0.00 0.00 0.00 90 1019.8
20260506144204 54 0 0.0 0.0 0.00 0.00 0.00 93 1019.7
20260506143004 53 0 0.0 0.0 0.00 0.00 0.00 93 1019.5
20260506141804 53 0 0.0 0.0 0.00 0.00 0.00 93 1019.5
20260506133603 53 0 0.0 0.0 0.00 0.00 0.00 92 1019.1
20260506123604 53 0 0.0 0.0 0.00 0.00 0.00 91 1018.9
20260506122404 53 0 0.0 0.0 0.00 0.00 0.00 90 1018.8
20260506110603 53 0 0.0 0.0 0.00 0.00 0.00 91 1018.3
20260506104203 53 0 0.0 0.0 0.00 0.00 0.00 91 1018.2
20260506101204 53 0 0.0 0.0 0.00 0.00 0.00 90 1018.1
20260506093004 53 0 0.0 0.0 0.00 0.00 0.00 90 1018.2
20260506084803 53 0 0.0 0.0 0.00 0.01 0.00 90 1018.0
20260506071204 53 0 0.0 0.0 0.00 0.09 0.00 90 1017.7
20260506061803 52 0 0.0 0.0 0.00 0.09 0.09 92 1017.3
20260506044204 53 0 0.0 0.0 0.00 0.16 0.09 93 1016.7
20260506040003 53 0 0.0 0.0 0.00 0.22 0.09 92 1016.2
20260506031204 54 0 0.0 0.0 0.00 0.23 0.09 92 1015.5
20260506025404 55 0 0.0 0.0 0.00 0.23 0.09 91 1015.3
20260506015403 57 0 0.0 0.0 0.00 0.23 0.09 89 1014.9
20260506011203 58 0 0.0 0.0 0.00 0.23 0.09 86 1014.9
20260505234203 57 0 0.0 0.0 0.00 0.23 0.09 87 1014.6
20260505201803 57 0 0.0 0.0 0.00 0.23 0.09 89 1015.1